CW7536 Weather Reports


Display with metric or nautical units.
time (UTC)temp
F
wind
direction
speed
MPH
gust
MPH
rain 1hr
in
rain 24hr
in
rain mn
in
humidity
%
barometer
mb
20260503210012 58 311 0.0 6.0 0.00 0.00 0.00 30 1010.5
20260503204519 58 328 2.0 9.0 0.00 0.00 0.00 30 1010.4
20260503203014 59 259 1.0 6.0 0.00 0.00 0.00 30 1010.7
20260503201507 58 323 2.0 10.0 0.00 0.00 0.00 32 1010.7
20260503200009 59 261 2.0 10.0 0.00 0.00 0.00 32 1010.9
20260503194505 58 214 1.0 6.0 0.00 0.00 0.00 33 1011.1
20260503193002 57 11 1.0 7.0 0.00 0.00 0.00 33 1011.0
20260503191502 57 352 1.0 5.0 0.00 0.00 0.00 33 1011.2
20260503190106 57 321 0.0 4.0 0.00 0.00 0.00 34 1011.2
20260503184559 57 298 1.0 8.0 0.00 0.00 0.00 35 1011.4
20260503183115 56 250 1.0 19.0 0.00 0.00 0.00 35 1011.5
20260503183003 56 319 2.0 19.0 0.00 0.00 0.00 35 1011.4
20260503181619 55 231 1.0 8.0 0.00 0.00 0.00 38 1011.4
20260503180051 55 279 3.0 12.0 0.00 0.00 0.00 39 1011.7
20260503174548 54 347 3.0 8.0 0.00 0.00 0.00 39 1011.8
20260503173053 53 295 0.0 6.0 0.00 0.00 0.00 41 1012.1
20260503171543 52 311 2.0 7.0 0.00 0.00 0.00 40 1012.3
20260503081602 45 5 0.0 1.0 0.00 0.00 0.00 54 1011.0
20260503080106 45 329 0.0 1.0 0.00 0.00 0.00 54 1010.9
20260503071605 46 8 0.0 5.0 0.00 0.00 0.00 53 1010.9
20260503070112 45 347 0.0 1.0 0.00 0.00 0.00 53 1010.9
20260503060108 47 14 0.0 1.0 0.00 0.00 0.00 50 1011.1
20260503054545 48 24 0.0 2.0 0.00 0.00 0.00 49 1011.2
20260503053044 48 23 0.0 0.0 0.00 0.00 0.00 50 1011.2
20260503051544 48 6 0.0 2.0 0.00 0.00 0.00 49 1011.4
20260503050040 48 316 0.0 1.0 0.00 0.00 0.00 48 1011.4
20260503044542 49 25 0.0 2.0 0.00 0.00 0.00 47 1011.4
20260503043040 49 193 0.0 1.0 0.00 0.00 0.00 46 1011.6
20260503041535 49 349 0.0 1.0 0.00 0.00 0.00 46 1011.5
20260503040033 50 338 0.0 2.0 0.00 0.00 0.00 45 1011.6
20260503034528 50 333 0.0 4.0 0.00 0.00 0.00 45 1011.5
20260503033022 50 25 0.0 1.0 0.00 0.00 0.00 45 1011.4
20260503031518 50 25 0.0 1.0 0.00 0.00 0.00 46 1011.3
20260503030014 50 25 0.0 1.0 0.00 0.00 0.00 45 1011.4
20260503024509 50 25 0.0 1.0 0.00 0.00 0.00 45 1011.4
20260503023005 51 306 0.0 1.0 0.00 0.00 0.00 44 1011.4
20260503021601 51 8 0.0 0.0 0.00 0.00 0.00 44 1011.6
20260503020055 52 15 0.0 0.0 0.00 0.00 0.00 43 1011.7
20260503014551 52 47 0.0 1.0 0.00 0.00 0.00 43 1011.9
20260503013054 52 47 0.0 0.0 0.00 0.00 0.00 44 1011.8
20260503011547 52 47 0.0 1.0 0.00 0.00 0.00 43 1011.6
20260503010054 52 48 0.0 1.0 0.00 0.00 0.00 44 1011.5
20260503004534 52 51 0.0 0.0 0.00 0.00 0.00 44 1011.2
20260503003032 53 51 0.0 0.0 0.00 0.00 0.00 43 1011.1
20260503001525 53 51 0.0 0.0 0.00 0.00 0.00 42 1011.1
20260503000021 54 56 0.0 1.0 0.00 0.00 0.00 40 1010.9
20260502234517 54 330 0.0 0.0 0.00 0.00 0.00 41 1010.9
20260502233017 55 46 0.0 1.0 0.00 0.00 0.00 39 1010.9
20260502231512 56 13 0.0 2.0 0.00 0.00 0.00 38 1010.7
20260502230004 56 324 0.0 1.0 0.00 0.00 0.00 39 1010.7
20260502224612 56 8 0.0 0.0 0.00 0.00 0.00 39 1010.5
20260502223056 57 348 0.0 2.0 0.00 0.00 0.00 38 1010.3
20260502221554 57 283 0.0 2.0 0.00 0.00 0.00 38 1010.3
20260502220049 58 349 0.0 3.0 0.00 0.00 0.00 36 1010.4
20260502214554 58 6 0.0 1.0 0.00 0.00 0.00 36 1010.3
20260502213040 59 352 0.0 2.0 0.00 0.00 0.00 38 1010.1
20260502211536 59 34 0.0 2.0 0.00 0.00 0.00 39 1010.1